Tracking 30970 objects as of 3-Jul-2025
HD Live streaming from Space Station
objects crossing your sky now

FENGYUN 1C DEB

Track FENGYUN 1C DEB now!
10-day predictions


NORAD ID: 31926
Int'l Code: 1999-025CMD
Perigee: 776.2 km
Apogee: 831.4 km
Inclination: 99.0 °
Period: 100.8 minutes
Semi major axis: 7174 km
RCS: 0.0122 m2 (small)
Launch date: May 10, 1999
Source: People's Republic of China (PRC)
Launch site: Taiyaun Space Center, China (TSC)

Note: This is SATELLITE DEBRIS
Your satellite tracking list
Your tracking list is empty




NASA's NSSDC Master Catalog

Two Line Element Set (TLE):
1 31926U 99025CMD 25183.75587652  .00003128  00000-0  12561-2 0  9991
2 31926  98.9583 274.4480 0038490  13.3191 346.8997 14.28522880928999
Source of the keplerian elements: AFSPC